GW4716 Weather Reports


time (UTC)temp
C
wind
direction
speed
KPH
gust
KPH
rain 1hr
cm
rain 24hr
cm
rain mn
cm
humidity
%
barometer
mb
20260508033844 9 267 3.2 4.8 0.00 0.00 0.00 51 1015.2
20260508033342 10 262 0.0 3.2 0.00 0.00 0.00 50 1015.0
20260508032839 10 51 6.4 9.7 0.00 0.00 0.00 45 1015.1
20260508032337 10 165 1.6 3.2 0.00 0.00 0.00 48 1015.2
20260508031833 10 47 4.8 4.8 0.00 0.00 0.00 47 1015.1
20260508031330 10 350 3.2 11.3 0.00 0.00 0.00 47 1015.1
20260508030826 10 296 0.0 1.6 0.00 0.00 0.00 49 1014.8
20260508030324 10 263 1.6 4.8 0.00 0.00 0.00 55 1014.9
20260508025820 10 247 0.0 3.2 0.00 0.00 0.00 52 1014.8
20260508025317 11 263 3.2 3.2 0.00 0.00 0.00 49 1014.7
20260508024814 11 219 6.4 6.4 0.00 0.00 0.00 54 1014.7
20260508024310 10 250 4.8 11.3 0.00 0.00 0.00 51 1014.5
20260508023808 10 258 0.0 3.2 0.00 0.00 0.00 55 1014.5
20260508023304 10 213 3.2 3.2 0.00 0.00 0.00 55 1014.5
20260508022800 10 243 1.6 3.2 0.00 0.00 0.00 56 1014.4
20260508022257 10 225 0.0 6.4 0.00 0.00 0.00 55 1014.2
20260508021754 10 221 0.0 3.2 0.00 0.00 0.00 51 1014.2
20260508021249 11 238 0.0 4.8 0.00 0.00 0.00 51 1014.2
20260508020746 10 320 1.6 3.2 0.00 0.00 0.00 53 1014.4
20260508020244 10 345 3.2 3.2 0.00 0.00 0.00 51 1014.4
20260508015741 10 248 3.2 4.8 0.00 0.00 0.00 55 1014.4
20260508015238 11 267 3.2 9.7 0.00 0.00 0.00 51 1014.1
20260508014735 10 154 1.6 3.2 0.00 0.00 0.00 54 1014.1
20260508014232 10 32 3.2 4.8 0.00 0.00 0.00 52 1014.1
20260508013727 11 286 0.0 3.2 0.00 0.00 0.00 53 1014.1
20260508013224 10 18 1.6 1.6 0.00 0.00 0.00 53 1013.8
20260508012722 10 227 1.6 3.2 0.00 0.00 0.00 57 1013.8
20260508012218 11 250 1.6 3.2 0.00 0.00 0.00 54 1013.6
20260508011717 10 243 4.8 4.8 0.00 0.00 0.00 58 1013.7
20260508011214 11 249 1.6 3.2 0.00 0.00 0.00 55 1013.5
20260508010710 11 159 3.2 11.3 0.00 0.00 0.00 51 1013.4
20260508010208 10 64 1.6 3.2 0.00 0.00 0.00 52 1013.6
20260508005706 11 255 0.0 1.6 0.00 0.00 0.00 54 1013.4
20260508005202 11 245 1.6 1.6 0.00 0.00 0.00 56 1013.4
20260508004657 12 207 1.6 4.8 0.00 0.00 0.00 51 1013.1
20260508004154 12 241 3.2 3.2 0.00 0.00 0.00 53 1013.2
20260508003651 12 244 0.0 1.6 0.00 0.00 0.00 50 1013.0
20260508003148 12 10 3.2 3.2 0.00 0.00 0.00 46 1013.1
20260508002644 13 7 1.6 6.4 0.00 0.00 0.00 44 1013.2
20260508002143 13 6 4.8 24.1 0.00 0.00 0.00 43 1013.1
20260508001637 12 335 1.6 6.4 0.00 0.00 0.00 44 1013.0
20260508001133 12 167 1.6 4.8 0.00 0.00 0.00 51 1013.0
20260508000629 12 345 4.8 12.9 0.00 0.00 0.00 46 1012.8
20260508000127 13 41 0.0 3.2 0.00 0.00 0.00 44 1012.6
20260507235624 13 339 3.2 6.4 0.00 0.00 0.00 43 1012.5
20260507235121 13 29 3.2 12.9 0.00 0.00 0.00 42 1012.6
20260507234617 13 265 3.2 16.1 0.00 0.00 0.00 43 1012.3
20260507234114 14 121 1.6 6.4 0.00 0.00 0.00 42 1012.0
20260507233611 13 216 6.4 9.7 0.00 0.00 0.00 42 1012.3
20260507233110 14 91 4.8 6.4 0.00 0.00 0.00 42 1011.9
20260507232605 14 8 3.2 4.8 0.00 0.00 0.00 44 1012.2
20260507232103 14 204 0.0 4.8 0.00 0.00 0.00 42 1012.3
20260507231559 14 55 6.4 9.7 0.00 0.00 0.00 40 1012.3
20260507231057 14 209 4.8 6.4 0.00 0.00 0.00 44 1012.3
20260507230553 14 324 0.0 6.4 0.00 0.00 0.00 43 1011.9
20260507230050 15 23 1.6 9.7 0.00 0.00 0.00 44 1011.9
20260507225544 14 227 6.4 9.7 0.00 0.00 0.00 42 1011.8
20260507225041 15 209 3.2 11.3 0.00 0.00 0.00 41 1012.0
20260507224537 15 92 0.0 4.8 0.00 0.00 0.00 41 1011.9
20260507224034 15 224 4.8 11.3 0.00 0.00 0.00 44 1012.0
20260507223530 15 121 0.0 6.4 0.00 0.00 0.00 41 1011.8
20260507223027 15 50 3.2 4.8 0.00 0.00 0.00 42 1011.6
20260507222524 15 10 4.8 9.7 0.00 0.00 0.00 41 1011.6
20260507222020 15 66 4.8 6.4 0.00 0.00 0.00 40 1011.8
20260507221517 15 200 8.0 9.7 0.00 0.00 0.00 42 1011.4
20260507221014 16 33 8.0 9.7 0.00 0.00 0.00 41 1011.2
20260507220511 16 321 3.2 6.4 0.00 0.00 0.00 40 1011.3
20260507220008 16 52 6.4 9.7 0.00 0.00 0.00 38 1011.1
20260507215504 16 59 6.4 12.9 0.00 0.00 0.00 39 1011.2
20260507215002 16 1 6.4 14.5 0.00 0.00 0.00 40 1011.1
20260507214459 16 350 1.6 9.7 0.00 0.00 0.00 38 1011.1
20260507213954 17 38 4.8 6.4 0.00 0.00 0.00 38 1011.1
20260507213452 17 105 4.8 14.5 0.00 0.00 0.00 38 1011.0
20260507212949 17 32 6.4 9.7 0.00 0.00 0.00 40 1010.9
20260507212444 17 25 0.0 3.2 0.00 0.00 0.00 40 1010.9
20260507211941 17 68 8.0 11.3 0.00 0.00 0.00 38 1010.7
20260507211438 17 192 3.2 14.5 0.00 0.00 0.00 38 1010.9
20260507210935 16 103 3.2 11.3 0.00 0.00 0.00 40 1011.0
20260507210426 17 345 3.2 14.5 0.00 0.00 0.00 41 1011.0
20260507205922 17 162 8.0 11.3 0.00 0.00 0.00 40 1010.7
20260507205420 17 328 6.4 11.3 0.00 0.00 0.00 40 1010.7
20260507204916 17 18 3.2 6.4 0.00 0.00 0.00 43 1011.1
20260507204412 17 33 4.8 11.3 0.00 0.00 0.00 42 1010.9
20260507203910 17 221 0.0 3.2 0.00 0.00 0.00 40 1011.0
20260507203408 17 298 0.0 14.5 0.00 0.00 0.00 40 1010.9
20260507202904 17 72 8.0 12.9 0.00 0.00 0.00 42 1010.8
20260507202400 17 310 4.8 16.1 0.00 0.00 0.00 42 1010.8
20260507201856 17 25 6.4 14.5 0.00 0.00 0.00 40 1011.0
20260507201351 18 54 4.8 6.4 0.00 0.00 0.00 39 1011.0
20260507200848 17 178 6.4 11.3 0.00 0.00 0.00 40 1011.1
20260507200344 17 0 4.8 11.3 0.00 0.00 0.00 40 1011.0
20260507195840 18 162 1.6 9.7 0.00 0.00 0.00 40 1011.0
20260507195337 17 18 9.7 16.1 0.00 0.00 0.00 44 1010.9
20260507194835 17 0 11.3 14.5 0.00 0.00 0.00 40 1011.1
20260507194331 17 65 6.4 12.9 0.00 0.00 0.00 41 1011.0
20260507193828 17 347 11.3 16.1 0.00 0.00 0.00 42 1010.9
20260507193325 17 29 11.3 14.5 0.00 0.00 0.00 41 1011.1
20260507192821 17 38 11.3 16.1 0.00 0.00 0.00 40 1011.2
20260507192318 17 348 4.8 4.8 0.00 0.00 0.00 44 1011.1
20260507191814 17 226 0.0 3.2 0.00 0.00 0.00 43 1011.1
20260507191310 17 23 3.2 6.4 0.00 0.00 0.00 45 1011.2
20260507190808 17 211 9.7 17.7 0.00 0.00 0.00 42 1011.2
20260507190306 17 154 6.4 11.3 0.00 0.00 0.00 45 1011.1
20260507185804 17 348 3.2 12.9 0.00 0.00 0.00 47 1011.3
20260507185300 18 22 3.2 6.4 0.00 0.00 0.00 41 1011.3
20260507184758 17 55 6.4 9.7 0.00 0.00 0.00 43 1011.2
20260507184256 17 109 6.4 14.5 0.00 0.00 0.00 43 1011.1
20260507183752 16 161 4.8 9.7 0.00 0.00 0.00 43 1011.4
20260507183249 17 162 8.0 11.3 0.00 0.00 0.00 44 1011.3
20260507182747 17 174 3.2 9.7 0.00 0.00 0.00 43 1011.3
20260507182242 17 75 3.2 6.4 0.00 0.00 0.00 47 1011.2
20260507181739 17 99 1.6 4.8 0.00 0.00 0.00 47 1011.4
20260507181235 17 20 3.2 12.9 0.00 0.00 0.00 46 1011.4
20260507180732 17 70 12.9 14.5 0.00 0.00 0.00 46 1011.1
20260507180229 17 43 3.2 9.7 0.00 0.00 0.00 48 1011.5
20260507175724 17 180 6.4 16.1 0.00 0.00 0.00 45 1011.4
20260507175221 17 18 4.8 6.4 0.00 0.00 0.00 49 1011.5
20260507174719 17 355 3.2 6.4 0.00 0.00 0.00 47 1011.5
20260507174217 17 75 1.6 14.5 0.00 0.00 0.00 52 1011.7
20260507173715 17 9 4.8 12.9 0.00 0.00 0.00 52 1011.9
20260507173211 16 11 0.0 11.3 0.00 0.00 0.00 48 1012.0
20260507172708 16 87 6.4 12.9 0.00 0.00 0.00 48 1012.2
20260507172204 16 46 3.2 4.8 0.00 0.00 0.00 47 1012.0
20260507171704 16 59 11.3 22.5 0.00 0.00 0.00 51 1012.0
20260507171202 16 74 6.4 6.4 0.00 0.00 0.00 50 1012.4
20260507170659 16 13 4.8 17.7 0.00 0.00 0.00 52 1012.3
20260507170156 16 54 4.8 12.9 0.00 0.00 0.00 50 1012.5
20260507165651 16 11 0.0 16.1 0.00 0.00 0.00 51 1012.5
20260507165148 15 76 11.3 16.1 0.00 0.00 0.00 53 1012.5
20260507164644 15 18 4.8 9.7 0.00 0.00 0.00 53 1012.4
20260507164141 15 59 8.0 12.9 0.00 0.00 0.00 53 1012.7
20260507163638 15 53 9.7 14.5 0.00 0.00 0.00 53 1012.7
20260507163136 15 245 0.0 9.7 0.00 0.00 0.00 57 1012.8
20260507162632 15 109 6.4 12.9 0.00 0.00 0.00 54 1013.0
20260507162128 15 17 6.4 9.7 0.00 0.00 0.00 55 1012.9
20260507161624 15 30 3.2 12.9 0.00 0.00 0.00 55 1013.1
20260507161121 15 26 6.4 12.9 0.00 0.00 0.00 54 1013.1
20260507160618 15 46 4.8 9.7 0.00 0.00 0.00 53 1013.1
20260507160114 15 55 1.6 9.7 0.00 0.00 0.00 54 1013.1
20260507155609 15 57 1.6 9.7 0.00 0.00 0.00 53 1013.1
20260507155107 14 33 3.2 9.7 0.00 0.00 0.00 55 1013.2
20260507154603 15 325 6.4 11.3 0.00 0.00 0.00 57 1013.4
20260507154100 15 331 9.7 12.9 0.00 0.00 0.00 57 1013.6
20260507153557 14 104 6.4 9.7 0.00 0.00 0.00 56 1013.6
20260507153054 14 31 3.2 14.5 0.00 0.00 0.00 57 1013.5
20260507152550 13 46 4.8 6.4 0.00 0.00 0.00 59 1013.7
20260507152046 13 60 3.2 12.9 0.00 0.00 0.00 56 1013.9
20260507151542 13 41 0.0 12.9 0.00 0.00 0.00 61 1013.9
20260507151039 14 34 6.4 9.7 0.00 0.00 0.00 61 1013.9
20260507150536 13 2 3.2 4.8 0.00 0.00 0.00 62 1014.1
20260507150033 13 4 3.2 6.4 0.00 0.00 0.00 64 1013.9
20260507145528 13 31 3.2 9.7 0.00 0.00 0.00 62 1014.1
20260507145026 13 340 12.9 16.1 0.00 0.00 0.00 63 1014.2
20260507144522 13 260 1.6 14.5 0.00 0.00 0.00 61 1014.4
20260507144020 13 305 0.0 3.2 0.00 0.00 0.00 61 1014.4
20260507143517 12 47 6.4 9.7 0.00 0.00 0.00 64 1014.1
20260507143014 13 354 3.2 11.3 0.00 0.00 0.00 62 1014.4
20260507142509 12 14 3.2 4.8 0.00 0.00 0.00 69 1014.5
20260507142007 11 24 3.2 4.8 0.00 0.00 0.00 75 1014.7
20260507141502 12 72 4.8 4.8 0.00 0.00 0.00 75 1014.8
20260507140959 11 40 1.6 1.6 0.00 0.00 0.00 77 1014.8
20260507140456 11 345 1.6 3.2 0.00 0.00 0.00 80 1014.8
20260507135953 11 355 0.0 3.2 0.00 0.00 0.00 79 1014.8
20260507135450 10 66 3.2 4.8 0.00 0.00 0.00 81 1014.9
20260507134947 10 25 3.2 6.4 0.00 0.00 0.00 82 1015.0
20260507134444 10 3 3.2 3.2 0.00 0.00 0.00 83 1015.0
20260507133940 10 6 3.2 4.8 0.00 0.00 0.00 83 1015.1
20260507133436 10 359 0.0 3.2 0.00 0.00 0.00 84 1015.2
20260507132935 10 5 1.6 3.2 0.00 0.00 0.00 85 1015.2
20260507132431 10 15 3.2 3.2 0.00 0.00 0.00 85 1015.3
20260507131927 10 351 3.2 4.8 0.00 0.00 0.00 85 1015.3
20260507131424 10 350 0.0 1.6 0.00 0.00 0.00 86 1015.3
20260507130921 10 336 1.6 3.2 0.00 0.00 0.00 87 1015.3
20260507130418 10 326 3.2 3.2 0.00 0.00 0.00 86 1015.4
20260507125917 10 2 0.0 3.2 0.00 0.00 0.00 86 1015.4
20260507125415 10 358 1.6 3.2 0.00 0.00 0.00 86 1015.4
20260507124912 10 14 1.6 1.6 0.00 0.00 0.00 86 1015.4
20260507124408 10 23 3.2 4.8 0.00 0.00 0.00 85 1015.3
20260507123906 10 311 0.0 1.6 0.00 0.00 0.00 86 1015.2
20260507123403 10 303 0.0 1.6 0.00 0.00 0.00 86 1015.2
20260507122859 9 349 1.6 4.8 0.00 0.00 0.00 86 1015.1
20260507122355 10 319 3.2 4.8 0.00 0.00 0.00 86 1015.2
20260507121851 10 321 3.2 6.4 0.00 0.00 0.00 86 1015.2
20260507121347 10 325 1.6 6.4 0.00 0.00 0.00 85 1015.1
20260507120844 10 330 1.6 3.2 0.00 0.00 0.00 85 1015.1
20260507120340 10 341 0.0 4.8 0.00 0.00 0.00 85 1014.8
20260507115836 10 332 6.4 9.7 0.00 0.00 0.00 84 1014.9
20260507115326 10 320 4.8 9.7 0.00 0.00 0.00 83 1014.8
20260507114822 11 286 1.6 3.2 0.00 0.00 0.00 79 1014.7
20260507114319 10 255 3.2 3.2 0.00 0.00 0.00 79 1014.8
20260507113817 10 266 1.6 3.2 0.00 0.00 0.00 80 1014.6
20260507113313 10 357 0.0 1.6 0.00 0.00 0.00 80 1014.6
20260507112811 10 333 0.0 0.0 0.00 0.00 0.00 81 1014.5
20260507112308 10 335 0.0 1.6 0.00 0.00 0.00 85 1014.5
20260507111806 10 348 0.0 0.0 0.00 0.00 0.00 84 1014.4
20260507111302 10 254 1.6 1.6 0.00 0.00 0.00 81 1014.2
20260507110758 10 214 0.0 0.0 0.00 0.00 0.00 83 1014.5
20260507110255 10 228 1.6 3.2 0.00 0.00 0.00 83 1014.5
20260507105752 10 220 0.0 0.0 0.00 0.00 0.00 81 1014.2
20260507105248 10 220 0.0 0.0 0.00 0.00 0.00 83 1014.0
20260507104745 10 220 0.0 0.0 0.00 0.00 0.00 81 1014.0
20260507104241 10 220 0.0 0.0 0.00 0.00 0.00 83 1013.9
20260507103737 10 211 0.0 0.0 0.00 0.00 0.00 81 1013.8
20260507103234 10 202 0.0 0.0 0.00 0.00 0.00 82 1014.1
20260507102730 10 205 0.0 1.6 0.00 0.00 0.00 82 1014.1
20260507102227 10 280 0.0 1.6 0.00 0.00 0.00 81 1014.0
20260507101723 10 289 0.0 0.0 0.00 0.00 0.00 83 1014.0
20260507101218 10 288 0.0 0.0 0.00 0.00 0.00 84 1013.8
20260507100716 10 288 0.0 1.6 0.00 0.00 0.00 84 1013.9
20260507100214 10 288 0.0 1.6 0.00 0.00 0.00 84 1013.8
20260507095712 10 288 0.0 0.0 0.00 0.00 0.00 85 1013.9
20260507095208 10 289 0.0 0.0 0.00 0.00 0.00 83 1013.9
20260507094705 10 289 0.0 0.0 0.00 0.00 0.00 84 1013.7
20260507094202 10 289 0.0 1.6 0.00 0.00 0.00 83 1013.7
20260507093659 10 218 0.0 0.0 0.00 0.00 0.00 88 1013.8
20260507093158 10 218 0.0 0.0 0.00 0.00 0.00 89 1013.7
20260507092654 10 218 0.0 0.0 0.00 0.00 0.00 90 1013.7
20260507092151 10 218 0.0 0.0 0.00 0.00 0.00 89 1013.8
20260507091647 10 218 0.0 0.0 0.00 0.00 0.00 89 1014.1
20260507091144 10 218 0.0 0.0 0.00 0.00 0.00 88 1014.0
20260507090639 10 290 0.0 0.0 0.00 0.00 0.00 88 1013.9
20260507090137 10 219 0.0 1.6 0.00 0.00 0.00 88 1013.9
20260507085633 10 283 1.6 1.6 0.00 0.00 0.00 89 1013.9
20260507085130 10 218 0.0 0.0 0.00 0.00 0.00 89 1013.9
20260507084627 10 292 1.6 1.6 0.00 0.00 0.00 89 1013.7
20260507084124 10 309 0.0 0.0 0.00 0.00 0.00 88 1013.7
20260507083620 10 308 0.0 1.6 0.00 0.00 0.00 88 1013.6
20260507083117 10 304 0.0 0.0 0.00 0.00 0.00 87 1013.5
20260507082613 10 350 1.6 1.6 0.00 0.00 0.00 85 1013.9
20260507082110 10 350 0.0 0.0 0.00 0.00 0.00 84 1014.0
20260507081606 10 350 0.0 1.6 0.00 0.00 0.00 85 1013.8
20260507081103 10 357 0.0 1.6 0.00 0.00 0.00 83 1013.9
20260507080559 10 359 0.0 0.0 0.00 0.00 0.00 89 1014.0
20260507080056 10 359 0.0 0.0 0.00 0.00 0.00 90 1013.9
20260507075550 10 359 0.0 0.0 0.00 0.00 0.00 90 1013.8
20260507075047 10 359 0.0 0.0 0.00 0.00 0.00 90 1014.2
20260507074544 10 351 0.0 3.2 0.00 0.00 0.00 90 1014.2
20260507074043 10 44 1.6 1.6 0.00 0.00 0.00 90 1014.0
20260507073538 10 359 0.0 0.0 0.00 0.00 0.00 91 1013.9
20260507073035 10 358 0.0 0.0 0.00 0.00 0.00 90 1013.6
20260507072533 10 358 0.0 0.0 0.00 0.00 0.00 91 1013.6
20260507072030 10 359 3.2 3.2 0.00 0.00 0.00 90 1013.7
20260507071527 10 357 0.0 1.6 0.00 0.00 0.00 91 1013.6
20260507071024 10 353 0.0 3.2 0.00 0.00 0.00 91 1013.6
20260507070521 10 353 1.6 1.6 0.00 0.00 0.00 91 1013.7
20260507070018 10 345 1.6 3.2 0.00 0.00 0.00 91 1013.7
20260507065514 10 351 1.6 3.2 0.00 0.00 0.00 91 1013.8
20260507065011 10 341 4.8 4.8 0.00 0.00 0.00 91 1013.9
20260507064509 10 357 3.2 4.8 0.00 0.00 0.00 91 1013.7
20260507064007 10 1 3.2 4.8 0.00 0.00 0.00 91 1013.7
20260507063504 10 335 3.2 4.8 0.00 0.00 0.00 91 1013.6
20260507063001 10 331 1.6 3.2 0.00 0.00 0.00 91 1013.6
20260507062458 11 355 3.2 4.8 0.00 0.00 0.00 90 1014.0
20260507061955 11 1 1.6 4.8 0.00 0.00 0.00 90 1013.9
20260507061453 11 306 3.2 4.8 0.00 0.00 0.00 90 1014.0
20260507060951 11 319 3.2 3.2 0.00 0.00 0.00 89 1013.9
20260507060448 11 0 3.2 6.4 0.00 0.00 0.00 89 1013.8
20260507055944 11 341 4.8 6.4 0.00 0.00 0.00 89 1014.1
20260507055440 11 14 6.4 9.7 0.00 0.00 0.00 88 1013.8
20260507054937 11 344 3.2 4.8 0.00 0.00 0.00 88 1013.9
20260507054433 11 324 1.6 6.4 0.00 0.00 0.00 87 1014.1
20260507053930 12 338 3.2 4.8 0.00 0.00 0.00 87 1013.9
20260507053428 12 342 0.0 6.4 0.00 0.00 0.00 86 1014.0
20260507052926 12 318 3.2 4.8 0.00 0.00 0.00 86 1014.1
20260507052423 12 343 6.4 6.4 0.00 0.00 0.00 86 1014.2
20260507051920 12 317 0.0 4.8 0.00 0.00 0.00 86 1014.1
20260507051418 12 344 3.2 9.7 0.00 0.00 0.00 85 1013.7
20260507050915 12 326 3.2 6.4 0.00 0.00 0.00 85 1013.8
20260507050411 12 298 1.6 4.8 0.00 0.00 0.00 84 1013.6
20260507045909 13 317 3.2 6.4 0.00 0.00 0.00 84 1013.6
20260507045405 13 351 4.8 11.3 0.00 0.00 0.00 83 1013.5
20260507044902 13 354 1.6 3.2 0.00 0.00 0.00 82 1013.4
20260507044358 13 223 1.6 3.2 0.00 0.00 0.00 83 1013.3
20260507043854 13 11 0.0 0.0 0.00 0.00 0.00 84 1013.5
20260507043351 13 16 1.6 1.6 0.00 0.00 0.00 84 1013.2
20260507042847 13 9 0.0 0.0 0.00 0.00 0.00 82 1013.5
20260507042343 13 21 0.0 3.2 0.00 0.00 0.00 83 1013.5
20260507041840 13 267 1.6 6.4 0.00 0.00 0.00 84 1013.5
20260507041337 13 331 1.6 3.2 0.00 0.00 0.00 84 1013.0
20260507040829 13 255 3.2 4.8 0.00 0.00 0.00 84 1013.3
20260507040325 13 317 3.2 4.8 0.00 0.23 0.23 84 1012.7
20260507035821 13 339 4.8 6.4 0.00 0.23 0.23 84 1012.7
20260507035316 13 340 6.4 11.3 0.00 0.23 0.23 83 1012.8
20260507034814 14 311 3.2 4.8 0.00 0.23 0.23 82 1013.0
20260507034311 14 343 4.8 4.8 0.00 0.23 0.23 81 1013.3